Regional Weather Roundup
Issued by NWS Albany, NY

Home | Current Version | Previous Version | Graphics & Text | Print | Product List | Glossary On
Versions: 1 2 3 4 5 6 7 8 9 10 11 12 13 14 15 16 17 18 19 20 21 22 23 24 25 26 27 28 29 30 31 32 33 34 35 36 37 38 39 40 41 42 43 44 45 46 47 48 49 50
000
ASUS41 KALY 040110
RWRALY

NEW YORK STATE HOURLY WEATHER ROUNDUP
NATIONAL WEATHER SERVICE ALBANY NY
800 PM EST SAT DEC 03 2016

NOTE: "FAIR" INDICATES FEW OR NO CLOUDS BELOW 12,000 FEET WITH NO
SIGNIFICANT WEATHER AND/OR NO OBSTRUCTIONS TO VISIBILITY.

NYZ032-033-038>043-046>054-057>066-NYZ062>081-082-084-040200-
EAST


CITY           SKY/WX    TMP DP  RH WIND       PRES   REMARKS
ALBANY         CLOUDY    36  25  64 NW10      30.13R WCI  28
GLENS FALLS    CLOUDY    36  22  56 NW3       30.11F
POUGHKEEPSIE   CLOUDY    38  26  62 NW6       30.09F WCI  33
NEWBURGH       MOCLDY    39  28  65 NW12      30.10F WCI  32
MONTGOMERY     CLOUDY    40  29  64 W5        30.10S
WHITE PLAINS   CLEAR     39  28  64 NW8       30.08R WCI  33
ISLIP          PTCLDY    42  27  55 NW12G22   30.08S
NEW YORK CITY  PTCLDY    45  29  53 NW18      30.10F
CENTRAL PARK   MOCLDY    43  27  53 NW9       30.13S
$$

NYZ005>009-017-018-044>046-055-056-040200-
CENTRAL


CITY           SKY/WX    TMP DP  RH WIND       PRES   REMARKS
FULTON         CLOUDY    37  25  61 NW12      30.18S WCI  29
SYRACUSE       FLURRIES  36  28  73 NW10      30.17S WCI  28
ROME           CLOUDY    34  32  92 W6        30.17S WCI  29
ELMIRA         CLOUDY    39  25  57 N7        30.18R WCI  34
BINGHAMTON     CLOUDY    32  26  78 NW13G20   30.12S WCI  22
MONTICELLO     CLOUDY    36  28  75 NW14G22   30.09S WCI  27
$$

NYZ026>034-041>043-087-040200-
NORTH


CITY           SKY/WX    TMP DP  RH WIND       PRES   REMARKS
WATERTOWN      CLOUDY    35  23  61 W8        30.18R WCI  29
FORT DRUM      NOT AVBL
OGDENSBURG     CLOUDY    34  26  71 NW10      30.18R WCI  26
MASSENA        CLOUDY    35  18  49 NW10G18   30.17R WCI  27
SARANAC LAKE   FLURRIES  27  23  85 VRB3      30.06R
PLATTSBURGH    CLOUDY    33  23  66 NW8       30.12R WCI  26
$$

NYZ001>004-010>016-019>021-085-040200-
WEST


CITY           SKY/WX    TMP DP  RH WIND       PRES   REMARKS
NIAGARA FALLS  CLOUDY    40  30  67 NW7       30.22S
BUFFALO        CLOUDY    38  28  67 NW7       30.22S WCI  33
DUNKIRK        CLOUDY    40  32  73 NW10      30.24F WCI  33
JAMESTOWN      MOCLDY    34  30  86 NW9       30.19S WCI  26
WELLSVILLE     CLOUDY    34  29  82 NW9       30.17S WCI  27
ROCHESTER      CLOUDY    39  28  64 NW8       30.21S WCI  33
PENN YAN       CLOUDY    37  26  64 VRB6      30.19S WCI  32
$$

             KEY
       WCI = WIND CHILL INDEX
       VSB = VISIBILITY
       HX  = HEAT INDEX
$$



USA.gov is the U.S. government's official web portal to all federal, state and local government web resources and services.